1502024400.64,56802,25.19,74570.3,13.53,7.77,7.73,0,*44
1502024401.89,56803,25.19,74574.0,13.51,7.91,7.83,0,*40
1502024403.08,56804,25.19,74570.8,13.53,8.23,8.23,0,*46
1502024404.28,56805,25.19,74574.3,13.51,8.09,8.05,0,*49
1502024405.49,56806,25.19,74570.0,13.51,8.15,8.15,0,*46
1502024406.74,56807,25.19,74572.5,13.51,7.95,7.91,0,*43
1502024407.96,56808,25.19,74570.8,13.51,7.95,7.97,0,*4A
1502024409.22,56809,25.19,74570.3,13.51,7.61,7.69,0,*41
1502024410.46,56810,25.19,74572.5,13.49,7.61,7.61,0,*48
1502024411.72,56811,25.19,74570.0,13.47,7.69,7.77,0,*48
1502024412.97,56812,25.19,74572.5,13.47,7.65,7.65,0,*44
1502024414.18,56813,25.19,74570.8,13.47,7.55,7.59,0,*49
1502024415.36,56814,25.19,74572.5,13.45,7.55,7.51,0,*44
1502024416.62,56815,25.19,74572.0,13.43,7.87,7.77,0,*48
1502024417.85,56816,25.19,74572.3,13.45,7.83,7.77,0,*49
1502024419.06,56817,25.19,74574.0,13.43,7.55,7.51,0,*41
1502024420.31,56818,25.19,74570.0,13.43,7.65,7.65,0,*4A
1502024421.52,56819,25.19,74570.0,13.37,7.79,7.77,0,*46
1502024422.73,56820,25.19,74572.0,13.37,8.01,7.95,0,*40
1502024423.93,56821,25.19,74570.0,13.37,8.05,8.13,0,*44
1502024425.15,56822,25.19,74572.3,13.41,7.79,7.77,0,*4F
1502024426.38,56823,25.19,74572.0,13.41,7.83,7.73,0,*4F
1502024427.59,56824,25.19,74570.3,13.37,7.79,7.69,0,*47
1502024428.77,56825,25.19,74572.8,13.37,8.05,8.05,0,*47
1502024429.97,56826,25.19,74570.3,13.35,8.01,8.05,0,*42
1502024431.18,56827,25.19,74570.8,13.37,8.13,8.27,0,*42
1502024432.41,56828,25.19,74574.0,13.35,8.13,8.23,0,*4B
1502024433.64,56829,25.19,74574.0,13.35,8.23,8.33,0,*48
1502024434.85,56830,25.19,74572.3,13.37,8.23,8.33,0,*42
1502024436.08,56831,25.19,74572.3,13.35,8.27,8.47,0,*46
1502024437.29,56832,25.19,74574.8,13.35,8.23,8.23,0,*43
1502024438.52,56833,25.19,74568.5,13.35,8.01,8.13,0,*41
1502024439.72,56834,25.25,74576.8,13.33,8.13,8.19,0,*49
1502024440.94,56835,25.19,74572.3,13.35,8.15,8.27,0,*45
1502024442.14,56836,25.19,74574.3,13.35,8.05,8.27,0,*47
1502024443.35,56837,25.19,74568.8,13.33,8.19,8.33,0,*48
1502024444.57,56838,25.19,74570.0,13.33,7.65,7.87,0,*43
1502024445.8,56839,25.19,74570.3,13.35,8.01,8.13,0,*4B
1502024447.03,56840,25.19,74572.8,13.33,8.13,8.33,0,*42
1502024448.28,56841,25.19,74572.8,13.31,8.29,8.47,0,*4B
1502024449.54,56842,25.19,74572.5,13.31,8.13,8.33,0,*42
1502024450.8,56843,25.19,74572.5,13.31,8.33,8.59,0,*4D
1502024452.01,56844,25.19,74574.0,13.31,8.65,8.69,0,*4A
1502024453.22,56845,25.19,74570.5,13.29,8.61,8.55,0,*49
1502024454.4,56846,25.19,74574.5,13.29,8.19,8.15,0,*41
1502024455.59,56847,25.19,74572.0,13.29,8.15,7.97,0,*49
1502024456.78,56848,25.19,74574.3,13.29,8.15,8.19,0,*4F
1502024457.96,56849,25.19,74574.8,13.29,8.09,8.09,0,*42
1502024459.14,56850,25.19,74576.3,13.29,8.09,8.09,0,*4A
1502024460.35,56851,25.19,74572.0,13.29,7.29,7.19,0,*48
1502024461.57,56852,25.19,74572.5,13.25,7.09,6.91,0,*44
1502024462.79,56853,25.19,74568.5,13.23,6.73,6.73,0,*43
1502024464.03,56854,25.19,74574.3,13.23,7.23,7.19,0,*4D
1502024465.26,56855,25.19,74572.0,13.23,7.23,7.23,0,*45
1502024466.48,56856,25.19,74568.3,13.19,7.47,7.47,0,*4F
1502024467.74,56857,25.19,74570.8,13.21,7.19,7.27,0,*48
1502024468.99,56858,25.19,74570.8,13.17,7.23,7.27,0,*4B
1502024470.23,56859,25.19,74572.0,13.17,7.55,7.69,0,*41
1502024471.46,56860,25.19,74574.8,13.17,7.79,7.83,0,*41
1502024472.66,56861,25.19,74574.8,13.13,7.41,7.33,0,*44
1502024473.86,56862,25.19,74574.8,13.13,7.33,7.41,0,*47
1502024475.1,56863,25.19,74574.8,13.09,6.87,6.97,0,*49
1502024476.32,56864,25.19,74574.0,13.11,7.23,7.29,0,*4C
1502024477.58,56865,25.19,74572.0,13.09,7.47,7.65,0,*4E
1502024478.79,56866,25.19,74574.0,13.09,6.93,7.09,0,*4F
1502024479.97,56867,25.19,74574.3,13.07,7.37,7.51,0,*42
1502024481.21,56868,25.19,74572.5,13.09,7.55,7.65,0,*40
1502024482.42,56869,25.19,74572.3,13.05,7.45,7.37,0,*4B
1502024483.68,56870,25.19,74576.5,13.05,7.23,7.15,0,*43
1502024484.87,56871,25.19,74574.3,13.03,7.09,6.97,0,*47
1502024486.08,56872,25.19,74574.5,13.03,7.23,7.29,0,*48
1502024487.27,56873,25.19,74572.3,13.03,7.45,7.55,0,*42
1502024488.53,56874,25.19,74574.3,13.01,7.61,7.65,0,*42
1502024489.73,56875,25.19,74574.3,13.01,7.41,7.45,0,*43
1502024490.98,56876,25.19,74574.5,12.99,7.65,7.77,0,*47
1502024492.21,56877,25.19,74572.8,12.99,7.83,7.87,0,*41
1502024493.47,56878,25.19,74574.8,13.01,7.73,7.73,0,*4A
1502024494.71,56879,25.19,74574.5,12.99,7.65,7.73,0,*4C
1502024495.93,56880,25.19,74572.5,13.01,7.51,7.55,0,*49
1502024497.17,56881,25.19,74574.0,12.99,7.73,7.73,0,*4C
1502024498.41,56882,25.19,74572.8,12.99,7.77,7.77,0,*4F
1502024499.65,56883,25.19,74572.0,12.99,7.65,7.73,0,*49
1502024500.9,56884,25.19,74574.0,12.99,7.61,7.61,0,*49
1502024502.14,56885,25.19,74574.3,12.99,7.61,7.61,0,*48
1502024503.41,56886,25.19,74572.0,12.97,7.61,7.69,0,*4D
1502024504.65,56887,25.19,74570.8,12.95,7.73,7.73,0,*46
1502024505.86,56888,25.19,74574.0,12.95,7.73,7.79,0,*43
1502024507.07,56889,25.19,74574.8,12.95,7.73,7.79,0,*42
1502024508.3,56890,25.19,74574.8,12.95,7.83,7.83,0,*40
1502024509.54,56891,25.19,74574.0,12.97,7.79,7.73,0,*49
1502024510.78,56892,25.19,74574.5,12.95,7.69,7.69,0,*42
1502024512.01,56893,25.19,74576.8,12.91,7.47,7.55,0,*44
1502024513.25,56894,25.19,74574.3,12.89,7.73,7.77,0,*4D
1502024514.48,56895,25.19,74574.0,12.91,7.91,8.01,0,*47
1502024515.68,56896,25.19,74572.8,12.91,7.97,7.97,0,*42
1502024516.91,56897,25.19,74576.0,12.89,7.83,7.87,0,*4E
1502024518.09,56898,25.19,74576.0,12.89,7.97,8.01,0,*45
1502024519.3,56899,25.19,74574.0,12.89,7.95,7.97,0,*46
1502024520.5,56900,25.19,74574.3,12.91,8.05,8.01,0,*48
1502024521.71,56901,25.19,74574.8,12.89,8.19,8.13,0,*4E
1502024522.9,56902,25.19,74572.8,12.89,8.23,8.23,0,*47
1502024524.09,56903,25.19,74576.0,12.89,8.19,8.19,0,*46
1502024525.32,56904,25.19,74576.8,12.87,8.09,8.13,0,*44
1502024526.57,56905,25.19,74572.5,12.87,8.29,8.29,0,*4E
1502024527.77,56906,25.19,74576.0,12.87,8.23,8.23,0,*4D
1502024528.98,56907,25.19,74574.5,12.87,8.01,8.09,0,*44
1502024530.17,56908,25.19,74578.3,12.87,7.97,7.97,0,*43
1502024531.4,56909,25.19,74576.0,12.85,7.83,7.83,0,*40
1502024532.63,56910,25.19,74574.3,12.85,7.61,7.61,0,*48
1502024533.84,56911,25.19,74576.0,12.83,7.55,7.59,0,*43
1502024535.02,56912,25.19,74576.5,12.81,7.45,7.41,0,*4A
1502024536.25,56913,25.19,74576.0,12.79,7.23,6.93,0,*42
1502024537.47,56914,25.19,74574.8,12.79,7.19,6.93,0,*4C
1502024538.68,56915,25.19,74576.3,12.77,6.93,6.61,0,*4D
1502024539.89,56916,25.19,74576.0,12.73,6.65,6.33,0,*44
1502024541.13,56917,25.19,74578.3,12.73,6.43,6.17,0,*47
1502024542.35,56918,25.19,74576.8,12.67,6.29,6.07,0,*40
1502024543.56,56919,25.19,74572.8,12.67,6.29,6.07,0,*41
1502024544.8,56920,25.19,74576.8,12.63,6.35,6.11,0,*45
1502024546.03,56921,25.19,74576.8,12.59,6.87,6.53,0,*42
1502024547.24,56922,25.19,74576.8,12.59,6.51,6.29,0,*47
1502024548.48,56923,25.19,74578.5,12.59,6.65,6.43,0,*4D
1502024549.7,56924,25.19,74578.3,12.57,6.79,6.57,0,*4C
1502024550.9,56925,25.19,74576.5,12.55,6.93,6.69,0,*46
1502024552.14,56926,25.19,74578.0,12.55,6.73,6.47,0,*47
1502024553.37,56927,25.19,74574.3,12.51,6.69,6.47,0,*49
1502024554.58,56928,25.19,74574.8,12.51,6.79,6.47,0,*47
1502024555.79,56929,25.19,74574.5,12.49,7.59,7.41,0,*4B
1502024557.02,56930,25.19,74578.3,12.49,7.69,7.55,0,*45
1502024558.25,56931,25.19,74576.5,12.49,7.41,7.23,0,*4F
1502024559.47,56932,25.19,74572.3,12.45,7.51,7.29,0,*4B
1502024560.7,56933,25.19,74576.8,12.45,7.61,7.41,0,*47
1502024561.94,56934,25.19,74576.5,12.49,7.77,7.59,0,*42
1502024563.15,56935,25.19,74578.0,12.45,7.55,7.51,0,*47
1502024564.39,56936,25.19,74574.8,12.49,7.69,7.55,0,*43
1502024565.65,56937,25.19,74572.0,12.45,7.61,7.47,0,*45
1502024566.88,56938,25.19,74576.5,12.45,7.65,7.51,0,*49
1502024568.15,56939,25.19,74576.0,12.45,7.73,7.61,0,*4C
1502024569.38,56940,25.19,74576.0,12.49,7.65,7.55,0,*4E
1502024570.62,56941,25.19,74576.0,12.45,7.55,7.47,0,*43
1502024571.85,56942,25.19,74576.0,12.45,7.65,7.51,0,*44
1502024573.09,56943,25.19,74578.0,12.45,7.73,7.55,0,*46
1502024574.3,56944,25.19,74576.8,12.45,7.55,7.51,0,*41
1502024575.5,56945,25.19,74576.0,12.43,7.37,7.27,0,*43
1502024576.73,56946,25.19,74578.3,12.43,7.77,7.65,0,*42
1502024577.94,56947,25.19,74578.0,12.43,7.41,7.27,0,*40
1502024579.17,56948,25.19,74578.3,12.41,7.37,7.27,0,*4C
1502024580.43,56949,25.19,74576.8,12.41,7.73,7.69,0,*47
1502024581.7,56950,25.19,74578.3,12.41,8.13,8.13,0,*44
1502024582.93,56951,25.19,74578.5,12.41,8.05,8.13,0,*42
1502024584.15,56952,25.19,74576.0,12.41,8.23,8.15,0,*43
1502024585.36,56953,25.19,74576.0,12.41,8.15,8.05,0,*46
1502024586.58,56954,25.19,74576.8,12.41,8.15,8.01,0,*45
1502024587.81,56955,25.19,74578.5,12.39,7.91,7.87,0,*49
1502024589.02,56956,25.19,74578.5,12.39,8.13,8.09,0,*46
1502024590.26,56957,25.19,74574.0,12.41,8.15,8.13,0,*45
1502024591.5,56958,25.19,74576.8,12.41,8.13,8.05,0,*4B
1502024592.73,56959,25.19,74576.8,12.41,7.83,7.59,0,*4A
1502024593.97,56960,25.19,74576.8,12.41,7.59,7.27,0,*4E
1502024595.18,56961,25.19,74572.5,12.39,7.79,7.65,0,*44
1502024596.39,56962,25.19,74576.5,12.37,7.45,7.29,0,*4E
1502024597.59,56963,25.19,74572.8,12.37,7.29,7.01,0,*4F
1502024598.83,56964,25.19,74576.5,12.37,7.19,6.97,0,*45
1502024600.06,56965,25.19,74576.3,12.37,7.23,7.09,0,*4B
1502024601.32,56966,25.19,74574.3,12.33,7.27,7.15,0,*45
1502024602.58,56967,25.19,74576.3,12.33,7.69,7.61,0,*4D
1502024603.85,56968,25.19,74578.3,12.33,7.83,7.73,0,*45
1502024605.05,56969,25.19,74578.0,12.31,7.69,7.51,0,*42
1502024606.32,56970,25.19,74578.5,12.33,7.73,7.61,0,*40
1502024607.55,56971,25.19,74574.3,12.33,8.01,7.83,0,*47
1502024608.82,56972,25.19,74572.0,12.33,7.95,7.73,0,*49
1502024610.03,56973,25.19,74572.3,12.31,7.79,7.61,0,*4B
1502024611.24,56974,25.19,74574.0,12.31,7.79,7.69,0,*44
1502024612.47,56975,25.19,74572.5,12.31,7.61,7.23,0,*42
1502024613.73,56976,25.19,74572.3,12.29,7.11,6.87,0,*40
1502024614.96,56977,25.19,74576.3,12.29,7.23,7.09,0,*47
1502024616.19,56978,25.19,74574.8,12.29,7.33,7.11,0,*40
1502024617.41,56979,25.19,74572.5,12.29,7.47,7.33,0,*42
1502024618.65,56980,25.19,74572.8,12.29,7.79,7.65,0,*4A
1502024619.88,56981,25.19,74576.5,12.23,7.73,7.61,0,*4F
1502024621.11,56982,25.19,74578.0,12.23,7.87,7.83,0,*4B
1502024622.31,56983,25.19,74572.8,12.29,8.09,7.97,0,*4C
1502024623.55,56984,25.19,74576.5,12.27,7.77,7.65,0,*4E
1502024624.76,56985,25.19,74574.5,12.27,7.29,7.19,0,*4F
1502024625.94,56986,25.19,74576.8,12.23,7.09,6.93,0,*49
1502024627.12,56987,25.19,74574.0,12.23,6.97,6.93,0,*4E
1502024628.35,56988,25.19,74576.8,12.23,7.19,7.15,0,*49
1502024629.61,56989,25.19,74576.8,12.21,7.15,7.11,0,*42
1502024630.81,56990,25.19,74576.0,12.21,7.05,6.93,0,*40
1502024632.04,56991,25.19,74574.0,12.19,6.69,6.61,0,*4C
1502024633.22,56992,25.19,74574.8,12.19,6.93,6.93,0,*47
1502024634.45,56993,25.19,74576.8,12.17,7.47,7.59,0,*47
1502024635.68,56994,25.19,74574.8,12.17,7.59,7.65,0,*40
1502024636.92,56995,25.19,74576.3,12.17,7.59,7.69,0,*4D
1502024638.12,56996,25.19,74576.5,12.15,7.37,7.47,0,*48
1502024639.31,56997,25.19,74574.5,12.15,7.51,7.51,0,*4E
1502024640.48,56998,25.19,74576.5,12.15,7.41,7.45,0,*45
1502024641.7,56999,25.19,74572.5,12.15,7.51,7.61,0,*43
1502024642.93,57000,25.19,74576.5,12.15,7.65,7.77,0,*4B
1502024644.17,57001,25.19,74578.0,12.15,7.61,7.61,0,*49
1502024645.36,57002,25.19,74576.5,12.15,7.33,7.29,0,*41
1502024646.53,57003,25.19,74576.5,12.15,7.41,7.33,0,*4E
1502024647.74,57004,25.19,74578.0,12.13,7.59,7.51,0,*42
1502024648.95,57005,25.19,74576.8,12.13,7.59,7.51,0,*43
1502024650.21,57006,25.19,74578.3,12.13,7.73,7.69,0,*43
1502024651.44,57007,25.19,74578.3,12.13,7.69,7.51,0,*42
1502024652.7,57008,25.19,74576.8,12.13,7.83,7.73,0,*49
1502024653.96,57009,25.19,74576.5,12.13,7.73,7.73,0,*47
1502024655.23,57010,25.19,74578.5,12.13,7.73,7.73,0,*4F
1502024656.46,57011,25.19,74578.3,12.13,7.83,7.79,0,*4B
1502024657.7,57012,25.19,74576.8,12.13,7.79,7.73,0,*47
1502024658.9,57013,25.19,74576.0,12.13,7.51,7.51,0,*4C
1502024660.11,57014,25.19,74576.0,12.13,7.51,7.41,0,*4A
1502024661.29,57015,25.19,74578.0,12.11,7.51,7.41,0,*49
1502024662.55,57016,25.19,74572.3,12.13,7.73,7.73,0,*49
1502024663.8,57017,25.19,74572.5,12.13,7.83,7.91,0,*4B
1502024665.04,57018,25.19,74572.8,12.15,7.87,7.95,0,*42
1502024666.3,57019,25.19,74576.5,12.13,7.69,7.69,0,*46
1502024667.53,57020,25.19,74572.5,12.13,7.27,7.29,0,*42
1502024668.79,57021,25.19,74572.5,12.13,7.27,7.27,0,*4D
1502024670.01,57022,25.19,74576.5,12.11,7.27,7.29,0,*42
1502024671.24,57023,25.19,74574.8,12.11,7.27,7.27,0,*4D
1502024672.43,57024,25.19,74576.3,12.11,7.51,7.59,0,*42
1502024673.64,57025,25.19,74574.0,12.11,7.79,7.91,0,*4D
1502024674.87,57026,25.19,74576.5,12.09,8.01,7.95,0,*43
1502024676.05,57027,25.19,74574.8,12.11,8.05,7.97,0,*4D
1502024677.22,57028,25.19,74576.3,12.11,7.97,7.97,0,*46
1502024678.45,57029,25.19,74576.0,12.11,7.83,7.83,0,*47
1502024679.66,57030,25.19,74576.0,12.11,7.61,7.59,0,*44
1502024680.9,57031,25.19,74572.5,12.11,7.73,7.73,0,*4E
1502024682.16,57032,25.19,74578.5,12.09,7.77,7.77,0,*44
1502024683.42,57033,25.19,74574.5,12.09,7.69,7.77,0,*4A
1502024684.66,57034,25.19,74574.3,12.07,7.77,7.77,0,*4C
1502024685.91,57035,25.19,74574.3,12.09,7.65,7.69,0,*4F
1502024687.12,57036,25.19,74572.5,12.11,7.69,7.59,0,*4A
1502024688.37,57037,25.19,74576.3,12.09,7.69,7.77,0,*4E
1502024689.58,57038,25.19,74574.8,12.11,7.69,7.79,0,*46
1502024690.84,57039,25.19,74572.5,12.09,7.27,7.27,0,*4F
1502024692.09,57040,25.19,74576.0,12.09,7.11,7.15,0,*45
1502024693.27,57041,25.19,74572.5,12.07,7.45,7.45,0,*4E
1502024694.47,57042,25.19,74574.0,12.07,7.45,7.47,0,*4F
1502024695.7,57043,25.19,74574.0,12.07,7.65,7.69,0,*40
1502024696.91,57044,25.19,74570.8,12.09,7.79,7.79,0,*45
1502024698.16,57045,25.19,74574.3,12.09,7.69,7.65,0,*48
1502024699.37,57046,25.19,74572.8,12.07,7.95,7.79,0,*4B
1502024700.56,57047,25.19,74572.8,12.07,8.15,8.01,0,*4D
1502024701.78,57048,25.19,74574.0,12.05,8.01,7.83,0,*40
1502024703.02,57049,25.19,74572.3,12.05,8.01,7.73,0,*4E
1502024704.23,57050,25.19,74574.3,12.05,8.23,8.01,0,*4C
1502024705.45,57051,25.19,74570.5,12.01,8.19,8.05,0,*44
1502024706.68,57052,25.19,74574.8,12.05,8.01,7.91,0,*48
1502024707.93,57053,25.19,74570.5,12.01,7.87,7.87,0,*4B
1502024709.17,57054,25.19,74572.5,12.05,8.19,8.13,0,*42
1502024710.38,57055,25.19,74572.8,12.05,8.19,8.09,0,*48
1502024711.64,57056,25.19,74570.8,12.05,7.87,7.77,0,*45
1502024712.87,57057,25.19,74568.8,12.01,7.95,7.97,0,*4D
1502024714.13,57058,25.19,74568.8,12.05,7.65,7.65,0,*44
1502024715.38,57059,25.19,74570.0,12.05,7.87,7.73,0,*4E
1502024716.57,57060,25.19,74570.8,12.07,8.01,7.79,0,*4D
1502024717.74,57061,25.19,74570.8,12.07,8.05,8.01,0,*48
1502024718.98,57062,25.19,74572.5,12.05,7.73,7.51,0,*4D
1502024720.22,57063,25.19,74570.3,12.01,7.41,6.47,0,*4F
1502024721.47,57064,25.19,74570.0,11.97,7.47,6.43,0,*46
1502024722.71,57065,25.19,74570.3,11.97,8.13,6.97,0,*40
1502024723.93,57066,25.19,74568.3,11.97,8.37,7.33,0,*4A
1502024725.16,57067,25.19,74568.5,11.95,8.41,7.33,0,*48
1502024726.36,57068,25.19,74570.0,11.93,7.77,6.83,0,*41
1502024727.54,57069,25.19,74570.8,11.93,8.01,6.93,0,*4F
1502024728.77,57070,25.19,74572.5,11.91,8.65,7.69,0,*43
1502024730.01,57071,25.19,74570.3,11.91,8.29,7.27,0,*40
1502024731.24,57072,25.19,74568.8,11.89,8.33,7.23,0,*45
1502024732.47,57073,25.19,74568.3,11.91,8.51,7.29,0,*43
1502024733.72,57074,25.19,74570.0,11.87,8.41,7.23,0,*48
1502024734.93,57075,25.19,74572.3,11.87,8.15,7.05,0,*4C
1502024736.19,57076,25.19,74570.8,11.87,7.83,6.65,0,*48
1502024737.4,57077,25.19,74574.3,11.85,8.79,7.61,0,*44
1502024738.59,57078,25.19,74568.5,11.85,9.03,7.97,0,*4E
1502024739.82,57079,25.19,74572.8,11.79,9.29,8.29,0,*4E
1502024741.05,57080,25.19,74568.5,11.87,9.15,8.01,0,*4C
1502024742.28,57081,25.19,74570.3,11.85,7.87,6.65,0,*46
1502024743.54,57082,25.19,74568.8,11.79,7.27,5.93,0,*46
1502024744.78,57083,25.19,74570.8,11.75,7.27,5.95,0,*4D
1502024745.99,57084,25.19,74568.3,11.73,8.37,7.09,0,*45
1502024747.17,57085,25.19,74570.8,11.73,8.45,7.41,0,*4D
1502024748.41,57086,25.19,74570.0,11.75,9.07,7.95,0,*46
1502024749.62,57087,25.19,74574.3,11.73,8.59,7.45,0,*46
1502024750.81,57088,25.19,74568.3,11.73,8.87,7.79,0,*45
1502024752.03,57089,25.19,74570.0,11.73,8.79,7.77,0,*4B
1502024753.28,57090,25.19,74570.3,11.75,8.93,7.83,0,*4A
1502024754.47,57091,25.19,74570.0,11.73,8.23,6.97,0,*42
1502024755.71,57092,25.19,74572.0,11.75,7.95,6.75,0,*49
1502024756.92,57093,25.19,74570.8,11.69,7.09,5.89,0,*40
1502024758.15,57094,25.19,74568.0,11.69,7.19,5.89,0,*46
1502024759.34,57095,25.19,74570.0,11.65,6.29,5.49,0,*45
1502024760.57,57096,25.19,74570.8,11.61,7.61,6.83,0,*4A
1502024761.78,57097,25.19,74570.5,11.63,7.91,7.09,0,*45
1502024763.01,57098,25.19,74568.5,11.61,8.29,7.41,0,*48
1502024764.21,57099,25.19,74568.0,11.59,6.75,5.89,0,*43
1502024765.41,57100,25.19,74566.8,11.57,7.41,6.21,0,*4B
1502024766.61,57101,25.19,74568.5,11.53,8.05,6.75,0,*40
1502024767.85,57102,25.19,74566.5,11.51,7.77,6.39,0,*43
1502024769.07,57103,25.19,74568.0,11.51,8.23,6.91,0,*4E
1502024770.25,57104,25.19,74564.3,11.47,7.51,6.25,0,*4B
1502024771.43,57105,25.19,74564.3,11.43,5.29,4.37,0,*42
1502024772.65,57106,25.19,74570.3,11.43,5.95,5.05,0,*46
1502024773.86,57107,25.19,74566.0,11.39,7.45,6.65,0,*40
1502024775.08,57108,25.19,74564.0,11.37,8.27,7.41,0,*4D
1502024776.35,57109,25.19,74566.5,11.37,8.41,7.61,0,*4E
1502024777.57,57110,25.19,74566.8,11.35,8.83,7.95,0,*41
1502024778.78,57111,25.19,74566.0,11.35,8.47,7.51,0,*40
1502024780.02,57112,25.19,74566.8,11.31,8.61,7.77,0,*47
1502024781.26,57113,25.19,74566.5,11.31,8.93,8.05,0,*41
1502024782.5,57114,25.19,74564.0,11.31,9.29,8.33,0,*43
1502024783.71,57115,25.19,74564.3,11.29,9.43,8.33,0,*47
1502024784.93,57116,25.19,74564.5,11.31,8.69,7.79,0,*45
1502024786.14,57117,25.19,74566.3,11.29,9.11,8.23,0,*43
1502024787.35,57118,25.19,74566.8,11.29,9.33,8.55,0,*4D
1502024788.57,57119,25.19,74566.5,11.29,9.33,8.41,0,*49
1502024789.79,57120,25.19,74566.0,11.29,9.07,8.13,0,*43
1502024791.05,57121,25.19,74560.8,11.27,9.11,8.13,0,*4B
1502024792.29,57122,25.19,74562.5,11.27,9.43,8.55,0,*4D
1502024793.53,57123,25.19,74566.5,11.27,9.43,8.59,0,*40
1502024794.76,57124,25.19,74564.3,11.25,9.61,8.71,0,*4F
1502024796.02,57125,25.19,74564.5,11.27,9.35,8.33,0,*4B
1502024797.22,57126,25.19,74566.5,11.25,9.33,8.29,0,*47
1502024798.48,57127,25.19,74562.0,11.27,9.57,8.59,0,*41
1502024799.72,57128,25.19,74566.5,11.27,9.67,8.59,0,*4D
1502024800.96,57129,25.19,74564.3,11.25,8.75,7.61,0,*48
1502024802.17,57130,25.19,74566.0,11.25,8.41,7.37,0,*44
1502024803.4,57131,25.19,74562.5,11.23,8.51,7.37,0,*42
1502024804.62,57132,25.19,74566.5,11.21,8.27,7.15,0,*42
1502024805.84,57133,25.19,74564.3,11.21,8.59,7.55,0,*4E
1502024807.09,57134,25.19,74564.8,11.19,8.87,7.87,0,*4E
1502024808.33,57135,25.19,74560.8,11.19,8.97,7.97,0,*4F
1502024809.57,57136,25.19,74564.8,11.19,8.89,7.97,0,*43
1502024810.84,57137,25.19,74562.3,11.19,9.35,8.55,0,*45
1502024812.08,57138,25.19,74564.3,11.19,9.11,8.09,0,*45
1502024813.31,57139,25.19,74564.5,11.17,8.75,7.83,0,*44
1502024814.52,57140,25.19,74562.5,11.17,8.61,7.77,0,*44
1502024815.74,57141,25.19,74564.3,11.17,8.93,8.09,0,*4E
1502024816.95,57142,25.19,74560.3,11.13,9.53,8.69,0,*42
1502024818.15,57143,25.19,74560.8,11.17,9.29,8.41,0,*40
1502024819.4,57144,25.19,74562.5,11.15,9.33,8.41,0,*4E
1502024820.63,57145,25.19,74562.0,11.15,9.21,8.29,0,*42
1502024821.87,57146,25.19,74560.0,11.15,9.33,8.51,0,*4D
1502024823.11,57147,25.19,74564.0,11.15,9.33,8.51,0,*4C
1502024824.36,57148,25.19,74566.3,11.15,8.87,7.95,0,*4A
1502024825.56,57149,25.19,74560.3,11.13,8.69,7.83,0,*4A
1502024826.8,57150,25.19,74560.0,11.13,8.51,7.83,0,*49
1502024828.01,57151,25.19,74562.0,11.11,8.83,8.23,0,*40
1502024829.25,57152,25.19,74560.8,11.07,8.97,8.45,0,*41
1502024830.49,57153,25.19,74558.5,11.07,9.35,8.87,0,*47
1502024831.76,57154,25.19,74558.5,11.07,9.35,8.89,0,*4E
1502024832.97,57155,25.19,74556.5,11.07,9.25,8.65,0,*4C
1502024834.21,57156,25.19,74556.5,11.07,9.33,8.75,0,*49
1502024835.45,57157,25.19,74560.8,11.07,9.25,8.59,0,*41
1502024836.69,57158,25.19,74562.0,11.07,9.01,8.23,0,*45
1502024837.93,57159,25.19,74556.0,11.07,9.11,8.45,0,*45
1502024839.15,57160,25.19,74560.0,11.07,8.79,8.09,0,*48
1502024840.39,57161,25.19,74562.0,11.05,8.93,8.41,0,*43
1502024841.61,57162,25.19,74560.0,11.05,9.43,8.97,0,*47
1502024842.82,57163,25.19,74560.0,11.05,9.33,8.75,0,*4D
1502024844.01,57164,25.19,74560.5,11.05,9.21,8.65,0,*48
1502024845.22,57165,25.19,74562.5,11.03,9.67,9.07,0,*48
1502024846.46,57166,25.19,74560.3,11.03,9.29,8.71,0,*41
1502024847.67,57167,25.19,74566.0,11.05,9.33,8.75,0,*49
1502024848.91,57168,25.19,74564.8,11.03,8.61,7.95,0,*47
1502024850.17,57169,25.19,74564.3,11.03,8.97,8.41,0,*49
1502024851.39,57170,25.19,74560.8,11.01,8.89,8.27,0,*4C
1502024852.62,57171,25.19,74562.5,11.01,8.51,7.91,0,*4A
1502024853.87,57172,25.19,74558.5,10.99,8.97,8.37,0,*40
1502024855.1,57173,25.19,74562.5,10.99,9.03,8.47,0,*4A
1502024856.3,57174,25.19,74560.3,10.97,9.47,8.93,0,*4A
1502024857.53,57175,25.19,74560.8,10.97,9.57,9.01,0,*40
1502024858.73,57176,25.19,74560.8,10.97,9.81,9.33,0,*49
1502024859.96,57177,25.19,74558.3,10.99,10.03,9.57,0,*76
1502024861.15,57178,25.19,74558.8,10.99,10.03,9.71,0,*7D
1502024862.35,57179,25.19,74560.5,11.01,10.17,9.75,0,*7D
1502024863.55,57180,25.19,74556.0,10.99,9.91,9.71,0,*49
1502024864.74,57181,25.19,74558.3,11.01,10.05,9.91,0,*73
1502024866.02,57182,25.19,74558.8,11.03,10.37,10.19,0,*4B
1502024867.25,57183,25.19,74560.0,11.05,10.27,10.09,0,*4C
1502024868.49,57184,25.19,74560.0,11.03,10.19,9.99,0,*71
1502024869.71,57185,25.19,74558.5,11.03,10.17,9.95,0,*72
1502024870.95,57186,25.19,74562.5,11.03,10.19,9.99,0,*73
1502024872.16,57187,25.19,74562.0,11.05,10.17,10.09,0,*4B
1502024873.4,57188,25.19,74558.3,11.05,9.49,9.39,0,*4C
1502024874.65,57189,25.19,74560.5,11.03,9.85,9.75,0,*43
1502024875.89,57190,25.19,74562.0,11.03,9.95,9.85,0,*45
1502024877.15,57191,25.19,74558.0,11.05,10.31,10.19,0,*49
1502024878.43,57192,25.19,74558.3,11.03,10.37,10.31,0,*40
1502024879.64,57193,25.19,74560.5,11.05,10.43,10.37,0,*42
1502024880.92,57194,25.19,74562.5,11.03,10.37,10.27,0,*41
1502024882.15,57195,25.19,74562.8,11.05,10.31,10.05,0,*40
1502024883.38,57196,25.19,74560.3,11.05,10.09,9.89,0,*74
1502024884.6,57197,25.19,74562.5,11.05,10.05,9.85,0,*75
1502024885.82,57198,25.19,74560.3,11.05,9.89,9.75,0,*49
1502024887.06,57199,25.19,74562.3,11.05,9.77,9.61,0,*4C
1502024888.27,57200,25.19,74560.8,11.05,9.75,9.61,0,*4D
1502024889.49,57201,25.19,74560.3,11.03,9.63,9.43,0,*4D
1502024890.73,57202,25.19,74558.3,11.03,9.53,9.43,0,*4D
1502024891.97,57203,25.19,74560.5,11.03,9.63,9.49,0,*45
1502024893.21,57204,25.19,74562.5,11.03,9.75,9.53,0,*4E
1502024894.45,57205,25.19,74560.8,11.01,9.81,9.61,0,*47
1502024895.67,57206,25.19,74562.5,11.01,9.85,9.75,0,*45
1502024896.85,57207,25.19,74562.3,11.01,9.95,9.75,0,*45
1502024898.06,57208,25.19,74556.8,11.01,9.95,9.81,0,*41
1502024899.26,57209,25.19,74562.5,11.01,10.13,9.91,0,*77
1502024900.48,57210,25.19,74560.0,11.03,10.17,9.99,0,*71
1502024901.73,57211,25.19,74560.0,11.03,10.27,10.17,0,*4D
1502024903.01,57212,25.19,74560.5,11.03,10.37,10.19,0,*41
1502024904.26,57213,25.19,74558.5,11.03,10.19,10.05,0,*41
1502024905.51,57214,25.19,74558.3,11.03,10.19,10.05,0,*46
1502024906.77,57215,25.19,74558.3,11.03,10.19,10.05,0,*47
1502024908.03,57216,25.19,74556.5,11.03,10.31,10.05,0,*4E
1502024909.25,57217,25.19,74562.0,11.03,10.17,9.99,0,*76
1502024910.5,57218,25.19,74556.8,11.03,10.27,10.05,0,*47
1502024911.72,57219,25.19,74558.5,11.03,10.17,9.95,0,*74
1502024912.94,57220,25.19,74556.5,11.05,10.17,9.89,0,*75
1502024914.19,57221,25.19,74558.5,11.03,10.09,9.89,0,*7D
1502024915.44,57222,25.19,74558.3,11.03,10.05,9.77,0,*73
1502024916.65,57223,25.19,74558.0,11.05,9.95,9.77,0,*45
1502024917.87,57224,25.19,74554.3,11.03,9.95,9.67,0,*45
1502024919.1,57225,25.19,74556.5,11.03,9.95,9.77,0,*45
1502024920.35,57226,25.19,74556.0,11.03,10.27,10.17,0,*49
1502024921.57,57227,25.19,74558.8,11.03,10.17,9.95,0,*79
1502024922.82,57228,25.19,74556.3,11.03,9.67,9.49,0,*48
1502024924.02,57229,25.19,74558.3,10.99,9.25,9.03,0,*43